sat.trackr.live / text

‹ back to catalog

NAVSTAR 53 (USA 175)

NORAD 28129 · 2003-058A

PAYLOAD ACTIVE UNKNOWN

§ Identity

Operator
Country
US
Launch date
2003-12-21
Launch site
AFETR
Launch vehicle
Mass (kg)
RCS (m²)
6.31

External: N2YO · Heavens-Above · Gunter

§ Orbital elements

Epoch: 2026-09-18T23:38:01.069440Z

Period
747.36 min
Inclination
55.0787°
Eccentricity
0.0000965
Mean motion
1.92678577 rev/d
Perigee alt
20,899.3 km
Apogee alt
20,904.6 km
Semi-major
27,280.1 km
B*
0.0000e+0
RAAN
19.8030°
Arg perigee
279.5326°
Mean anomaly
80.4676°
Rev number
16,627

§ Raw data

NAVSTAR 53 (USA 175)1 28129U 03058A   26261.98473460 -.00000091  00000+0  00000+0 0  99952 28129  55.0787  19.8030 0000965 279.5326  80.4676  1.92678577166276

JSON: /api/v1/satellites/28129 · /tle

For live sub-satellite position, see the globe view (requires WebGL).

§ Visibility from observer

Set your observer location to see the next 7 days of passes ≥ 10°. The values pass through the URL so the page stays shareable.

No JS? Fill the form by hand. The geolocation button needs JavaScript.